• en Suisse
  • Liste des pays
  • À 7 jours
  • Température de l'eau
  • Carte satellitaire
  • Carte météo
  • Widgets météo
  • user-avatar
    Se connecter

    Météo par heure à Akoureyri

    Ce jour, 23 Octobre, Mardi

    Heure Température Précipitation Vent Pression Humidité
    00:00 -2°C° 0 mm 3 m/s 707 mmHg 83%
    01:00 -2°C° 0 mm 3 m/s 707 mmHg 81%
    02:00 -2°C° 0 mm 3 m/s 706 mmHg 83%
    03:00 -2°C° 0 mm 2 m/s 706 mmHg 85%
    04:00 -3°C° 0 mm 2 m/s 705 mmHg 87%
    05:00 -3°C° 0 mm 2 m/s 705 mmHg 88%
    06:00 -1°C° 0 mm 1 m/s 705 mmHg 89%
    07:00 -1°C° 0 mm 1 m/s 704 mmHg 90%
    08:00 0°C° 0 mm 1 m/s 704 mmHg 84%
    09:00 +1°C° 0 mm 1 m/s 704 mmHg 78%
    10:00 +2°C° 0 mm 1 m/s 704 mmHg 72%
    11:00 +1°C° 0.1 mm 2 m/s 704 mmHg 72%
    12:00 +1°C° 0.1 mm 2 m/s 703 mmHg 72%
    13:00 +1°C° 0.1 mm 2 m/s 703 mmHg 72%
    14:00 +1°C° 0.3 mm 2 m/s 704 mmHg 76%
    15:00 +1°C° 0.3 mm 2 m/s 704 mmHg 80%
    16:00 +1°C° 0.3 mm 2 m/s 704 mmHg 83%
    17:00 -1°C° 0 mm 2 m/s 704 mmHg 84%
    18:00 -1°C° 0 mm 2 m/s 704 mmHg 85%
    19:00 -2°C° 0 mm 2 m/s 704 mmHg 86%
    20:00 -2°C° 0 mm 2 m/s 705 mmHg 86%
    21:00 -3°C° 0 mm 2 m/s 705 mmHg 86%
    22:00 -3°C° 0 mm 2 m/s 706 mmHg 85%
    23:00 -3°C° 0 mm 2 m/s 706 mmHg 85%

    Demain, 24 Octobre, Mercredi

    Heure Température Précipitation Vent Pression Humidité
    00:00 -3°C° 0 mm 2 m/s 706 mmHg 85%
    01:00 -4°C° 0 mm 2 m/s 707 mmHg 85%
    02:00 -1°C° 0 mm 1 m/s 707 mmHg 85%
    03:00 -1°C° 0 mm 1 m/s 707 mmHg 85%
    04:00 -1°C° 0 mm 1 m/s 707 mmHg 85%
    05:00 -1°C° 0.1 mm 1 m/s 707 mmHg 86%
    06:00 -1°C° 0.1 mm 1 m/s 708 mmHg 87%
    07:00 0°C° 0.1 mm 1 m/s 708 mmHg 88%
    08:00 -1°C° 0.2 mm 2 m/s 708 mmHg 85%
    09:00 +1°C° 0.2 mm 2 m/s 708 mmHg 82%
    10:00 +1°C° 0.2 mm 3 m/s 708 mmHg 79%
    11:00 +1°C° 0.1 mm 3 m/s 708 mmHg 77%
    12:00 +2°C° 0.1 mm 3 m/s 708 mmHg 74%
    13:00 +3°C° 0.1 mm 3 m/s 708 mmHg 72%
    14:00 +1°C° 0.2 mm 4 m/s 708 mmHg 74%
    15:00 +1°C° 0.2 mm 4 m/s 708 mmHg 76%
    16:00 0°C° 0.2 mm 4 m/s 707 mmHg 79%
    17:00 0°C° 0 mm 4 m/s 707 mmHg 81%
    18:00 0°C° 0 mm 3 m/s 707 mmHg 83%
    19:00 0°C° 0 mm 3 m/s 707 mmHg 85%
    20:00 -1°C° 0 mm 3 m/s 707 mmHg 87%
    21:00 -1°C° 0 mm 2 m/s 706 mmHg 89%
    22:00 -2°C° 0 mm 2 m/s 706 mmHg 91%
    23:00 -2°C° 0 mm 2 m/s 706 mmHg 92%

    Après-demain, 25 Octobre, Jeudi

    Heure Température Précipitation Vent Pression Humidité
    00:00 -2°C° 0 mm 2 m/s 706 mmHg 93%
    01:00 -1°C° 0 mm 1 m/s 706 mmHg 95%
    02:00 -1°C° 0 mm 1 m/s 706 mmHg 95%
    03:00 -3°C° 0 mm 2 m/s 706 mmHg 95%
    04:00 -3°C° 0 mm 2 m/s 706 mmHg 95%
    05:00 -3°C° 0.1 mm 2 m/s 706 mmHg 94%
    06:00 -3°C° 0.1 mm 2 m/s 707 mmHg 94%
    07:00 -3°C° 0.1 mm 2 m/s 707 mmHg 94%
    08:00 -3°C° 0.1 mm 2 m/s 707 mmHg 91%
    09:00 -2°C° 0.1 mm 2 m/s 708 mmHg 88%
    10:00 -2°C° 0.1 mm 2 m/s 708 mmHg 85%
    11:00 -2°C° 0 mm 2 m/s 709 mmHg 84%
    12:00 -2°C° 0 mm 2 m/s 709 mmHg 82%
    13:00 -1°C° 0 mm 2 m/s 709 mmHg 80%
    14:00 -2°C° 0 mm 2 m/s 710 mmHg 81%
    15:00 -2°C° 0 mm 2 m/s 710 mmHg 82%
    16:00 -2°C° 0 mm 2 m/s 710 mmHg 83%
    17:00 -3°C° 0 mm 2 m/s 710 mmHg 83%
    18:00 -3°C° 0 mm 2 m/s 711 mmHg 84%
    19:00 -3°C° 0 mm 2 m/s 711 mmHg 84%
    20:00 -3°C° 0 mm 2 m/s 711 mmHg 83%
    21:00 -3°C° 0 mm 2 m/s 711 mmHg 82%
    22:00 -3°C° 0 mm 2 m/s 712 mmHg 81%
    23:00 -4°C° 0 mm 2 m/s 712 mmHg 82%

    26 Octobre, Vendredi

    Heure Température Précipitation Vent Pression Humidité
    00:00 -4°C° 0 mm 2 m/s 712 mmHg 83%
    01:00 -4°C° 0 mm 2 m/s 712 mmHg 83%
    02:00 -4°C° 0 mm 2 m/s 712 mmHg 84%
    03:00 -5°C° 0 mm 2 m/s 712 mmHg 85%
    04:00 -5°C° 0 mm 2 m/s 712 mmHg 86%
    05:00 -5°C° 0 mm 2 m/s 713 mmHg 87%
    06:00 -5°C° 0 mm 2 m/s 713 mmHg 87%
    07:00 -6°C° 0 mm 2 m/s 713 mmHg 88%
    08:00 -5°C° 0 mm 2 m/s 713 mmHg 84%
    09:00 -5°C° 0 mm 2 m/s 713 mmHg 81%
    10:00 -4°C° 0 mm 2 m/s 713 mmHg 77%
    11:00 -4°C° 0 mm 2 m/s 714 mmHg 76%
    12:00 -3°C° 0 mm 2 m/s 714 mmHg 75%
    13:00 -3°C° 0 mm 2 m/s 714 mmHg 74%
    14:00 -3°C° 0 mm 2 m/s 714 mmHg 78%
    15:00 -4°C° 0 mm 2 m/s 714 mmHg 83%
    16:00 -5°C° 0 mm 2 m/s 714 mmHg 87%
    17:00 -5°C° 0 mm 2 m/s 714 mmHg 88%
    18:00 -5°C° 0 mm 2 m/s 715 mmHg 89%
    19:00 -5°C° 0 mm 2 m/s 715 mmHg 90%
    20:00 -5°C° 0 mm 2 m/s 715 mmHg 90%
    21:00 -5°C° 0 mm 2 m/s 715 mmHg 89%
    22:00 -5°C° 0 mm 2 m/s 715 mmHg 89%
    23:00 -5°C° 0 mm 2 m/s 715 mmHg 89%

    27 Octobre, Samedi

    Heure Température Précipitation Vent Pression Humidité
    00:00 -5°C° 0 mm 2 m/s 716 mmHg 89%
    01:00 -6°C° 0 mm 2 m/s 716 mmHg 89%
    02:00 -7°C° 0 mm 3 m/s 716 mmHg 89%
    03:00 -7°C° 0 mm 3 m/s 716 mmHg 88%
    04:00 -7°C° 0 mm 3 m/s 716 mmHg 88%
    05:00 -7°C° 0 mm 3 m/s 716 mmHg 87%
    06:00 -7°C° 0 mm 3 m/s 716 mmHg 87%
    07:00 -6°C° 0 mm 2 m/s 716 mmHg 86%
    08:00 -7°C° 0 mm 3 m/s 716 mmHg 81%
    09:00 -6°C° 0 mm 3 m/s 717 mmHg 76%
    10:00 -5°C° 0 mm 3 m/s 717 mmHg 71%
    11:00 -5°C° 0 mm 3 m/s 717 mmHg 68%
    12:00 -4°C° 0 mm 3 m/s 717 mmHg 66%
    13:00 -4°C° 0 mm 3 m/s 718 mmHg 64%
    14:00 -5°C° 0 mm 3 m/s 718 mmHg 69%
    15:00 -5°C° 0 mm 2 m/s 718 mmHg 73%
    16:00 -5°C° 0 mm 2 m/s 718 mmHg 78%
    17:00 -6°C° 0 mm 2 m/s 718 mmHg 80%
    18:00 -6°C° 0 mm 2 m/s 719 mmHg 81%
    19:00 -6°C° 0 mm 2 m/s 719 mmHg 83%
    20:00 -6°C° 0.1 mm 2 m/s 719 mmHg 83%
    21:00 -6°C° 0.1 mm 2 m/s 720 mmHg 84%
    22:00 -6°C° 0.1 mm 2 m/s 720 mmHg 84%
    23:00 -6°C° 0.1 mm 2 m/s 720 mmHg 85%

    28 Octobre, Dimanche

    Heure Température Précipitation Vent Pression Humidité
    00:00 -6°C° 0.1 mm 2 m/s 720 mmHg 85%
    01:00 -6°C° 0.1 mm 2 m/s 721 mmHg 85%
    02:00 -7°C° 0 mm 2 m/s 721 mmHg 86%
    03:00 -7°C° 0 mm 2 m/s 721 mmHg 86%
    04:00 -7°C° 0 mm 2 m/s 721 mmHg 87%
    05:00 -8°C° 0 mm 2 m/s 721 mmHg 86%
    06:00 -8°C° 0 mm 2 m/s 721 mmHg 85%
    07:00 -8°C° 0 mm 2 m/s 722 mmHg 84%
    08:00 -7°C° 0 mm 2 m/s 722 mmHg 79%
    09:00 -6°C° 0 mm 2 m/s 722 mmHg 75%
    10:00 -6°C° 0 mm 2 m/s 722 mmHg 70%
    11:00 -5°C° 0 mm 2 m/s 723 mmHg 68%
    12:00 -5°C° 0 mm 2 m/s 723 mmHg 65%
    13:00 -4°C° 0 mm 2 m/s 723 mmHg 63%
    14:00 -5°C° 0 mm 2 m/s 723 mmHg 68%
    15:00 -5°C° 0 mm 2 m/s 723 mmHg 72%
    16:00 -6°C° 0 mm 2 m/s 723 mmHg 77%
    17:00 -6°C° 0.1 mm 2 m/s 723 mmHg 79%
    18:00 -6°C° 0.1 mm 2 m/s 724 mmHg 81%
    19:00 -6°C° 0.1 mm 2 m/s 724 mmHg 83%
    20:00 -7°C° 0 mm 2 m/s 724 mmHg 85%
    21:00 -7°C° 0 mm 2 m/s 725 mmHg 87%
    22:00 -7°C° 0 mm 1 m/s 725 mmHg 88%
    23:00 -7°C° 0 mm 1 m/s 726 mmHg 88%

    29 Octobre, Lundi

    Heure Température Précipitation Vent Pression Humidité
    00:00 -7°C° 0 mm 1 m/s 726 mmHg 88%
    01:00 -7°C° 0 mm 1 m/s 727 mmHg 87%
    02:00 -8°C° 0 mm 1 m/s 727 mmHg 87%
    03:00 -8°C° 0 mm 1 m/s 727 mmHg 86%
    04:00 -8°C° 0 mm 1 m/s 727 mmHg 86%
    05:00 -8°C° 0 mm 1 m/s 728 mmHg 86%
    06:00 -8°C° 0 mm 1 m/s 728 mmHg 86%
    07:00 -8°C° 0 mm 1 m/s 729 mmHg 86%
    08:00 -8°C° 0 mm 1 m/s 730 mmHg 82%
    09:00 -7°C° 0 mm 1 m/s 730 mmHg 78%
    10:00 -6°C° 0 mm 1 m/s 731 mmHg 74%
    11:00 -6°C° 0 mm 1 m/s 731 mmHg 71%
    12:00 -4°C° 0 mm 1 m/s 731 mmHg 69%
    13:00 -4°C° 0 mm 1 m/s 732 mmHg 66%
    14:00 -6°C° 0 mm 1 m/s 732 mmHg 71%
    15:00 -7°C° 0 mm 1 m/s 732 mmHg 75%
    16:00 -7°C° 0 mm 1 m/s 732 mmHg 80%
    17:00 -8°C° 0 mm 1 m/s 732 mmHg 80%
    18:00 -8°C° 0 mm 1 m/s 733 mmHg 81%
    19:00 -8°C° 0 mm 1 m/s 733 mmHg 81%
    20:00 -8°C° 0 mm 1 m/s 734 mmHg 81%
    21:00 -9°C° 0 mm 1 m/s 734 mmHg 81%
    22:00 -9°C° 0 mm 1 m/s 734 mmHg 81%
    23:00 -9°C° 0 mm 1 m/s 734 mmHg 80%
    Voir plus